CAPE
0 0 0 0 0 0 0 0 0 0 0 0 0 0 0 0 0 0 0 0 0 2 54 37 0 0 0 0 0 0 0 1 2 4 2 1 0 0 0 0 0 0 0 0
0 0 0 0 0 0 0 0 0 0 0 0 0 0 0 0 0 0 0 0 0 0 0 0 0 0 0 0 0 0 0 1 1 0 0 0 0 0 0 0 0 0 0 0
0 0 0 0 0 0 0 0 0 0 0 0 0 0 0 0 0 0 0 0 0 0 0 0 0 0 0 1 1 0 1 0 0 0 0 0 0 0 1 2 0 0 0 0
0 0 0 0 0 0 0 0 0 0 0 0 0 0 0 0 0 0 0 0 0 0 0 0 0 0 0 0 0 0 0 0 0 0 0 0 1 0 0 0 0 0 0 0
0 0 0 0 0 0 0 0 0 0 0 0 0 0 0 0 0 0 0 0 0 0 0 0 0 0 0 0 0 0 0 0 0 0 0 0 0 0 0 0 0 0 0 0
0 0 0 0 0 0 0 0 0 0 0 0 0 0 0 0 0 0 0 0 0 0 0 0 0 0 0 0 0 0 0 0 0 0 0 0 0 0 0 0 0 0 0 0
0 0 0 0 0 0 0 0 0 0 0 0 0 0 0 0 0 0 0 0 0 0 0 0 0 0 0 0 0 0 0 0 0 0 0 0 0 0 0 0 0 0 0 0
0 0 0 0 0 0 0 0 0 0 0 0 0 0 0 0 0 0 0 0 0 0 0 0 0 0 0 0 0 0 0 0 0 0 0 0 0 0 0 0 0 0 0 0
0 0 0 0 0 0 0 0 0 0 0 0 0 0 0 0 0 0 0 0 0 0 0 0 0 0 0 0 0 0 0 0 0 0 0 0 0 0 0 0 0 0 0 1
0 0 0 0 0 0 0 0 0 0 0 0 0 0 0 0 0 0 0 0 0 0 0 0 0 0 0 0 0 0 0 0 0 0 0 0 0 0 0 0 0 0 2 5
0 0 0 0 0 0 0 0 0 0 0 0 0 0 0 0 0 0 0 0 0 0 0 0 0 0 0 0 0 0 0 0 0 0 0 0 0 0 0 0 3 6 11 12
0 0 0 0 0 0 0 0 0 0 0 0 0 0 0 0 0 0 0 0 0 0 0 0 0 0 0 0 0 0 0 0 0 0 0 0 0 0 0 0 1 1 0 8
0 0 0 0 0 0 0 0 0 0 0 0 0 0 0 0 0 0 0 0 0 0 0 0 0 0 0 0 0 0 0 0 0 0 0 0 0 0 0 0 0 0 1 1
0 0 0 0 0 0 0 0 0 0 0 0 0 0 0 0 0 0 0 0 0 0 0 0 0 0 0 0 0 0 0 0 0 0 0 0 0 0 0 1 2 2 0 1
0 0 0 0 0 0 0 0 0 0 0 0 0 0 0 0 0 0 0 0 0 0 0 0 0 0 0 0 0 0 0 0 0 0 0 0 0 0 1 0 1 1 0 0
0 0 0 0 0 0 0 0 0 0 0 0 0 0 0 0 0 0 0 0 0 0 0 0 0 0 0 0 0 0 0 0 0 0 0 0 0 0 0 0 1 0 0 1
0 1 0 0 0 0 0 0 0 0 0 0 0 0 0 0 0 0 0 0 0 0 0 0 0 0 0 0 0 0 0 0 0 0 0 0 0 1 0 1 2 1 1 2
0 0 0 0 0 0 0 1 0 0 0 1 0 0 0 0 0 0 0 0 0 0 0 0 0 0 0 0 0 0 0 0 0 0 0 0 0 0 0 1 1 0 0 1
0 0 0 0 0 0 1 2 1 1 0 0 0 0 0 0 0 0 0 0 0 0 0 0 0 0 0 0 0 0 0 0 0 0 0 0 0 0 0 0 1 1 0 1
0 0 0 1 1 0 1 1 1 1 0 0 0 0 0 0 0 0 0 0 0 0 0 0 0 0 0 0 0 0 0 0 0 0 0 0 0 0 0 0 0 0 1 1
1 1 1 0 1 0 0 0 0 0 0 0 0 0 0 0 0 0 0 0 0 0 0 0 0 0 0 0 0 0 0 0 0 0 0 0 0 0 0 0 0 1 1 1
1 1 0 0 1 1 1 0 0 0 0 0 0 0 0 0 0 0 0 0 0 0 0 0 0 0 0 0 0 0 0 0 0 0 0 0 1 1 0 0 0 0 1 1
2 2 1 0 0 0 0 0 0 0 0 0 0 0 0 0 0 0 0 0 0 0 0 0 0 0 0 0 0 0 0 0 0 0 0 0 0 0 0 0 0 0 0 0
2 2 2 1 0 0 0 0 0 0 0 0 0 0 0 0 0 0 0 0 0 0 0 0 0 0 0 0 0 0 0 0 0 0 0 0 0 0 0 0 0 0 0 0
3 2 0 0 0 0 0 0 0 0 0 0 0 0 0 0 0 0 0 0 0 0 0 0 0 0 0 0 0 0 0 0 1 0 0 0 0 0 0 0 0 0 0 0
1 2 2 2 1 0 0 0 0 0 0 0 0 0 0 0 0 0 0 0 0 0 0 0 0 0 0 0 0 0 0 0 0 1 0 0 0 0 0 0 0 0 0 0
2 1 0 0 0 0 0 0 1 1 0 0 1 0 0 0 0 0 0 0 0 0 0 0 0 0 0 0 0 0 0 0 0 0 0 0 0 0 0 0 0 0 0 0
CIN
0 0 0 0 0 0 0 0 0 0 0 0 0 0 0 0 0 0 0 0 0 -120 -468 -471 0 0 0 0 0 0 0 0 0 0 0 0 0 0 0 0 0 0 0 0
0 0 0 0 0 0 0 0 0 0 0 0 0 0 0 0 0 0 0 0 0 0 0 0 0 0 0 0 0 0 0 0 0 0 0 0 0 0 0 0 0 0 0 0
0 0 0 0 0 0 0 0 0 0 0 0 0 0 0 0 0 0 0 0 0 0 0 0 0 0 0 0 0 0 0 0 0 0 0 0 0 0 -4 -16 0 0 0 0
0 0 0 0 0 0 0 0 0 0 0 0 0 0 0 0 0 0 0 0 0 0 0 0 0 0 0 0 0 0 0 0 0 0 0 0 -8 -1 -1 0 0 0 0 0
0 0 0 0 0 0 0 0 0 0 0 0 0 0 0 0 0 0 0 0 0 0 0 0 0 0 0 0 0 0 0 0 0 0 0 0 0 0 0 0 0 0 0 0
0 0 0 0 0 0 0 0 0 0 0 0 0 0 0 0 0 0 0 0 0 0 0 0 0 0 0 0 0 0 0 0 0 0 0 0 0 0 0 0 0 0 0 0
0 0 0 0 0 0 0 0 0 0 0 0 0 0 0 0 0 0 0 0 0 0 0 0 0 0 0 0 0 0 0 0 0 0 0 0 0 0 0 0 0 0 0 0
0 0 0 0 0 0 0 0 0 0 0 0 0 0 0 0 0 0 0 0 0 0 0 0 0 0 0 0 0 0 0 0 0 0 0 0 0 0 0 0 0 0 0 0
0 0 0 0 0 0 0 0 0 0 0 0 0 0 0 0 0 0 0 0 0 0 0 0 0 0 0 0 0 0 0 0 0 0 0 0 0 0 0 0 0 0 0 0
0 0 0 0 0 0 0 0 0 0 0 0 0 0 0 0 0 0 0 0 0 0 0 0 0 0 0 0 0 0 0 0 0 0 0 0 0 0 0 0 0 0 0 0
0 0 0 0 0 0 0 0 0 0 0 0 0 0 0 0 0 0 0 0 0 0 0 0 0 0 0 0 0 0 0 0 0 0 0 0 0 0 0 0 0 0 0 0
0 0 0 0 0 0 0 0 0 0 0 0 0 0 0 0 0 0 0 0 0 0 0 0 0 0 0 0 0 0 0 0 0 0 0 0 0 0 0 0 0 0 0 0
0 0 0 0 0 0 0 0 0 0 0 0 0 0 0 0 0 0 0 0 0 0 0 0 0 0 0 0 0 0 0 0 0 0 0 0 0 0 0 0 0 0 0 0
0 0 0 0 0 0 0 0 0 0 0 0 0 0 0 0 0 0 0 0 0 0 0 0 0 0 0 0 0 0 0 0 0 0 0 0 0 0 0 0 0 0 0 0
0 0 0 0 0 0 0 0 0 0 0 0 0 0 0 0 0 0 0 0 0 0 0 0 0 0 0 0 0 0 0 0 0 0 0 0 0 0 0 0 0 0 0 0
0 0 0 0 0 0 0 0 0 0 0 0 0 0 0 0 0 0 0 0 0 0 0 0 0 0 0 0 0 0 0 0 0 0 0 0 0 0 0 0 0 0 0 0
0 0 0 0 0 0 0 0 0 0 0 0 0 0 0 0 0 0 0 0 0 0 0 0 0 0 0 0 0 0 0 0 0 0 0 0 0 0 0 0 0 0 0 0
0 0 0 0 0 0 0 0 0 0 0 0 0 0 0 0 0 0 0 0 0 0 0 0 0 0 0 0 0 0 0 0 0 0 0 0 0 0 0 0 0 0 0 0
0 0 0 0 0 0 0 0 0 0 0 0 0 0 0 0 0 0 0 0 0 0 0 0 0 0 0 0 0 0 0 0 0 0 0 0 0 0 0 0 0 0 0 0
0 0 0 0 0 0 0 0 0 0 0 0 0 0 0 0 0 0 0 0 0 0 0 0 0 0 0 0 0 0 0 0 0 0 0 0 0 0 0 0 0 0 0 0
0 0 0 0 0 0 0 0 0 0 0 0 0 0 0 0 0 0 0 0 0 0 0 0 0 0 0 0 0 0 0 0 0 0 0 0 0 0 0 0 0 0 0 0
0 0 0 0 0 0 0 0 0 0 0 0 0 0 0 0 0 0 0 0 0 0 0 0 0 0 0 0 0 0 0 0 0 0 0 0 0 0 0 0 0 0 0 0
0 0 0 0 0 0 0 0 0 0 0 0 0 0 0 0 0 0 0 0 0 0 0 0 0 0 0 0 0 0 0 0 0 0 0 0 0 0 0 0 0 0 0 0
0 0 0 0 0 0 0 0 0 0 0 0 0 0 0 0 0 0 0 0 0 0 0 0 0 0 0 0 0 0 0 0 0 0 0 0 0 0 0 0 0 0 0 0
0 0 0 0 0 0 0 0 0 0 0 0 0 0 0 0 0 0 0 0 0 0 0 0 0 0 0 0 0 0 0 0 0 0 0 0 0 0 0 0 0 0 0 0
0 0 0 0 0 0 0 0 0 0 0 0 0 0 0 0 0 0 0 0 0 0 0 0 0 0 0 0 0 0 0 0 0 0 0 0 0 0 0 0 0 0 0 0
0 0 0 0 0 0 0 0 0 0 0 0 0 0 0 0 0 0 0 0 0 0 0 0 0 0 0 0 0 0 0 0 0 0 0 0 0 0 0 0 0 0 0 0
Wind_Speed
5 4 5 6 5 12 11 10 8 11 11 11 7 5 4 6 5 5 5 3 3 5 5 6 6 6 6 7 8 9 11 11 12 11 12 11 9 9 9 6 6 5 4 4
4 3 6 5 6 7 9 5 9 7 9 10 4 2 2 3 2 4 6 7 7 6 7 7 7 8 9 10 9 10 12 12 12 12 12 10 10 7 7 5 4 3 2 4
5 1 5 4 8 10 6 6 6 10 11 3 5 4 2 3 5 6 6 7 9 9 9 8 8 9 11 11 12 12 13 13 13 11 12 10 8 7 6 2 1 4 6 9
4 1 5 4 2 4 10 7 10 6 5 5 2 6 4 2 5 6 6 7 9 9 11 11 11 13 14 13 14 14 14 13 12 12 12 8 6 4 1 3 6 6 6 7
5 5 4 3 5 8 8 13 8 13 7 5 10 7 2 3 4 6 6 7 9 10 12 12 13 14 15 15 15 15 13 12 11 8 7 5 1 2 3 3 4 4 4 6
4 5 10 8 5 6 4 11 8 11 10 14 12 7 6 7 6 8 8 9 10 12 13 14 13 15 17 16 15 14 11 9 7 4 4 2 3 2 1 2 4 4 7 7
3 5 6 6 5 6 6 10 5 11 11 16 10 1 11 13 10 9 9 11 12 13 14 14 14 16 16 15 13 10 8 9 9 8 7 6 5 4 4 5 5 6 7 8
3 1 9 8 6 10 8 3 4 9 11 12 9 12 13 13 13 13 14 13 14 15 14 13 13 15 15 14 10 10 10 10 9 9 7 6 6 5 5 6 7 8 8 9
9 8 2 10 2 3 3 4 6 11 11 16 16 10 14 14 14 13 15 15 14 16 16 13 12 12 13 8 9 10 11 10 9 8 7 7 6 7 6 7 7 7 8 9
2 4 6 5 3 3 3 4 4 7 17 17 16 17 16 14 14 14 14 15 14 16 16 14 12 13 12 10 9 10 9 9 7 7 6 7 5 5 5 6 7 7 8 10
3 5 5 8 8 4 3 3 7 9 11 16 21 17 18 17 16 15 14 14 13 14 14 13 12 12 10 9 8 9 8 7 6 5 6 5 5 5 5 5 7 8 8 9
8 8 7 5 5 9 11 10 12 15 13 13 17 20 19 17 15 16 15 14 14 14 14 12 12 11 10 9 8 7 6 5 5 4 4 5 5 5 5 7 10 11 14 11
3 2 3 4 5 6 7 10 8 12 15 19 16 17 16 16 14 16 15 14 14 14 13 12 11 11 9 8 8 8 7 5 4 4 5 5 5 6 6 6 10 10 12 15
4 5 2 3 3 8 12 12 14 14 14 15 17 16 17 17 16 15 14 14 14 13 12 11 11 10 7 7 8 7 7 7 5 5 5 5 5 6 6 7 7 7 10 12
3 2 4 12 12 13 13 14 16 15 16 16 14 16 17 18 17 15 14 13 13 13 11 10 9 8 7 6 7 7 5 5 4 4 4 5 5 5 6 7 7 8 8 9
7 6 10 13 14 13 14 12 15 14 15 15 16 16 18 17 18 15 13 11 11 10 9 8 8 7 6 6 6 5 5 7 5 4 4 5 5 5 6 7 7 8 9 10
9 5 5 11 13 14 14 12 13 14 14 15 16 14 15 16 15 14 12 12 11 10 9 8 7 7 7 6 6 4 3 4 5 3 4 5 5 5 6 6 6 7 8 9
3 8 11 10 9 10 14 15 16 17 14 14 15 13 11 10 13 13 12 12 10 9 8 7 6 7 7 7 6 4 4 4 3 4 4 4 5 5 6 6 7 8 8 9
13 13 15 16 13 13 13 14 15 17 15 13 13 10 10 10 12 12 11 9 8 8 7 6 8 6 6 7 5 4 4 4 4 3 4 4 4 5 5 6 7 8 8 9
15 15 17 16 14 13 13 12 14 15 13 13 12 11 11 9 9 9 8 7 5 6 7 7 6 5 5 5 4 3 3 3 4 3 3 4 4 5 6 7 7 8 8 8
13 14 15 15 15 13 12 11 12 12 11 8 10 10 10 10 8 8 7 5 6 7 7 6 4 3 3 2 1 2 1 2 3 4 4 4 4 5 6 7 7 7 8 8
12 13 14 14 14 14 11 11 11 10 9 10 10 10 10 9 7 6 4 4 5 6 4 3 3 3 2 1 1 1 2 2 2 3 4 3 4 5 6 7 7 8 8 8
12 13 14 13 13 14 13 11 9 10 10 9 9 8 7 5 4 4 3 4 4 4 3 3 3 3 2 1 1 2 3 3 3 3 3 3 4 5 6 7 7 8 8 8
14 14 15 14 12 12 14 11 11 11 10 9 8 5 6 5 4 4 5 5 5 4 2 2 2 3 1 1 1 2 3 4 4 3 4 4 4 4 6 7 7 8 8 9
14 14 13 12 13 10 12 11 11 10 9 8 7 6 5 4 2 3 4 3 4 2 1 2 1 2 1 2 2 3 4 4 4 4 5 5 5 5 6 7 7 8 8 8
14 10 10 12 9 7 7 6 6 5 5 5 4 3 3 3 4 4 3 3 3 2 2 2 2 1 2 2 3 4 5 5 5 5 5 5 5 6 6 8 8 8 8 8
12 12 10 10 9 8 7 6 5 5 4 3 3 2 2 3 3 3 3 2 2 3 3 3 3 3 3 3 4 4 4 4 4 5 6 5 5 5 6 7 8 8 8 8
Wind_Direction
227 218 193 201 181 178 198 219 199 245 220 249 250 239 282 308 310 306 306 287 190 179 158 151 141 117 109 110 119 126 121 123 125 125 119 109 102 99 108 108 131 175 203 221
209 117 195 212 230 190 217 220 245 251 252 235 215 194 236 323 83 69 42 41 72 115 126 127 126 122 123 124 125 125 120 114 112 111 109 103 105 94 101 121 94 139 223 247
225 177 137 311 212 186 189 205 195 213 231 162 229 206 148 83 93 91 73 65 74 82 94 102 105 110 106 107 111 111 110 109 102 99 97 95 99 100 118 163 197 247 242 257
157 102 211 237 85 179 216 244 223 247 240 227 184 112 85 15 129 107 89 82 78 85 90 94 102 103 108 108 106 103 98 97 100 101 103 97 107 103 41 242 247 263 273 278
157 198 311 243 201 180 175 252 213 229 217 170 137 133 96 39 76 104 102 93 91 94 99 101 105 112 109 104 101 99 98 98 100 103 119 105 68 259 231 251 270 279 282 287
142 198 213 211 206 148 129 272 210 191 181 165 159 174 161 152 127 112 105 103 105 105 107 106 110 112 106 105 100 100 104 106 103 95 64 69 85 51 4 302 304 304 302 299
158 226 281 248 153 151 154 252 194 192 175 168 190 74 126 132 118 106 110 112 110 104 100 100 110 109 102 100 96 102 99 90 74 69 68 54 48 27 355 339 326 317 307 306
106 193 256 154 101 177 209 179 188 176 169 161 124 125 127 126 126 126 119 113 108 103 98 95 99 97 92 86 90 88 82 78 71 62 54 43 33 21 6 355 337 328 320 317
190 209 202 204 203 183 167 171 193 168 155 141 138 146 142 137 135 129 122 115 110 103 93 79 78 86 89 76 85 84 81 74 65 59 48 36 23 8 353 353 345 338 331 327
100 222 227 221 250 239 200 224 183 162 152 152 146 149 142 138 135 130 125 118 114 107 98 89 81 77 77 77 82 85 79 65 53 47 27 27 22 14 1 358 350 344 338 333
252 266 291 241 217 198 209 158 128 125 152 149 140 146 143 141 138 130 125 121 116 110 104 97 88 78 70 68 78 79 75 62 46 34 22 15 20 13 8 15 353 343 346 338
215 204 193 225 208 153 167 174 159 136 127 143 145 143 143 139 137 132 128 125 116 111 107 101 93 84 70 63 65 75 72 55 39 26 19 14 12 6 34 353 354 7 356 360
273 91 63 87 83 115 126 141 142 131 134 132 133 132 131 125 127 121 121 119 116 113 110 106 95 80 69 67 68 67 67 53 43 29 20 16 8 358 348 5 1 359 0 357
115 133 121 179 168 104 110 111 102 105 115 125 129 125 121 118 117 117 115 115 115 112 106 103 95 80 67 68 72 74 76 54 43 31 19 13 5 357 350 349 347 344 353 352
31 63 90 116 108 108 117 127 117 119 123 120 121 122 123 123 118 114 115 114 109 104 101 100 94 81 67 70 71 65 56 46 35 27 23 12 1 353 352 347 341 343 337 347
79 84 114 120 126 124 123 120 118 126 125 125 123 123 122 116 116 115 116 120 120 109 101 95 92 82 67 64 70 63 65 48 32 25 13 9 2 353 353 345 346 342 340 344
119 107 121 141 138 139 134 126 121 122 120 115 109 109 107 105 109 108 105 102 102 107 107 101 94 82 70 62 63 56 41 41 21 21 15 9 355 357 353 339 338 334 332 338
108 138 138 140 123 120 114 120 118 115 113 109 104 109 115 119 121 120 118 117 109 102 95 89 89 85 68 58 56 50 43 22 17 21 5 9 359 356 351 334 334 331 330 330
93 108 115 122 129 120 121 112 110 108 111 110 111 111 111 116 123 123 128 122 120 117 108 104 95 84 77 64 59 56 53 33 26 27 4 6 4 357 347 336 333 329 329 326
94 94 95 97 99 101 98 96 104 105 110 112 115 115 112 110 114 113 118 107 95 110 121 112 102 90 82 76 57 64 55 39 18 11 11 356 357 346 342 335 327 325 324 321
89 92 93 93 88 86 91 100 105 106 113 111 119 118 117 118 112 123 129 118 120 125 114 116 104 100 85 66 70 60 34 10 10 2 352 345 335 338 334 330 325 323 319 316
85 89 91 93 93 88 82 95 96 96 98 91 89 100 106 116 115 84 53 111 124 132 119 108 103 86 72 326 33 342 331 340 346 338 343 330 327 327 328 325 323 319 315 313
86 90 90 88 93 95 85 80 74 81 86 89 99 108 112 120 121 128 127 112 114 126 115 104 105 125 101 34 7 339 324 298 302 315 322 307 307 313 317 318 317 312 312 312
86 85 88 93 95 87 88 82 83 81 81 83 81 87 115 111 81 62 87 86 84 100 92 112 134 118 86 36 347 335 316 302 284 290 303 283 288 298 309 315 312 313 309 306
84 89 91 89 87 86 95 97 93 87 87 83 75 71 76 61 55 118 103 94 98 88 67 62 75 86 36 1 336 312 315 309 290 281 292 290 291 300 308 314 310 309 307 304
75 72 73 72 79 88 94 98 95 91 95 89 77 65 71 78 98 107 96 84 78 44 28 10 350 332 321 311 316 312 310 306 302 286 287 286 287 297 307 312 309 308 306 304
69 71 78 70 58 58 61 70 84 77 64 56 63 57 105 116 109 112 100 75 45 19 8 356 326 318 324 318 310 310 307 303 306 306 301 288 284 298 306 308 305 304 302 301